User: anonymous
Location: Caltech
(34.1382°N, 118.1253°W)
Time: 16:56:32
(UTC-07:00)
Language:

Iridium 94 - Orbit

View from above orbital plane
View from above orbital plane
View from above satellite
View from above satellite

Ground track
Ground track

The orbit data is extracted from the following two-line orbital elements,

1 27374U 02005C   14273.44065515  .00000051  00000-0  10974-4 0  6737
2 27374 086.3946 309.8641 0004303 084.3270 046.3105 14.34215083673945
Epoch (UTC): 30 September 2014 10:34:32
Eccentricity: 0.0004303
inclination: 86.3946°
perigee height: 774 km
apogee height: 781 km
right ascension of ascending node: 309.8641°
argument of perigee: 84.3270°
revolutions per day: 14.34215083
mean anomaly at epoch: 46.3105°
orbit number at epoch: 67394

The dashed part of the orbit path shows where the satellite is in the earth's shadow,  

DLR